This demonstration page uses our WeatherBlox Daily Observations layout. Learn more.

Left ArrowRight Arrow

Hourly Observations for September 27, 2018

Temp ( °F °C ) Dew Point ( °F °C ) Humidity (%) Winds ( mph kmh ) Pressure ( in mb ) Visibility ( mi km ) Precip ( " mm )
12:53 am 00:53 Clear 54 12.2 51 10.6 90 90 W 3 6 30.16 1021 10 16 0.00 0.00
1:53 am 01:53 Clear 53 11.7 50 10 89 89 SW 3 6 30.15 1021 10 16 0.00 0.00
2:53 am 02:53 Clear 52 11.1 50 10 93 93 Calm 30.15 1021 10 16 0.00 0.00
3:53 am 03:53 Clear 53 11.7 51 10.6 93 93 Calm 30.14 1021 10 16 0.00 0.00
4:53 am 04:53 Clear 53 11.7 51 10.6 93 93 Calm 30.13 1020 10 16 0.00 0.03
5:53 am 05:53 Clear 53 11.7 50 10 89 89 Calm 30.14 1021 10 16 0.00 0.00
6:53 am 06:53 Clear 53 11.7 51 10.6 93 93 Calm 30.13 1020 10 16 0.00 0.00
7:53 am 07:53 Sunny 54 12.2 51 10.6 90 90 W 3 6 30.14 1021 10 16 0.00 0.00
8:53 am 08:53 Sunny 55 12.8 52 11.1 90 90 Calm 30.12 1020 10 16 0.00 0.00
9:53 am 09:53 Sunny 57 13.9 51 10.6 81 81 Calm 30.10 1019 10 16 0.00 0.00
10:53 am 10:53 Sunny 60 15.6 52 11.1 75 75 NE 3 6 30.10 1019 10 16 0.00 0.00
11:53 am 11:53 Sunny 61 16.1 51 10.6 70 70 E 3 6 30.10 1019 10 16 0.00 0.00
12:53 pm 12:53 Sunny 62 16.7 52 11.1 70 70 E 5 7 30.08 1019 10 16 0.00 0.00
1:53 pm 13:53 Sunny 61 16.1 53 11.7 75 75 NNE 5 7 30.05 1018 10 16 0.00 0.00
2:53 pm 14:53 Cloudy with Rain 60 15.6 55 12.8 84 84 NNW 3 6 30.04 1017 8 13 0.00 0.03
3:53 pm 15:53 Cloudy with Light Rain 60 15.6 56 13.3 86 86 VRB 3 6 29.99 1016 10 16 0.04 1.02
4:53 pm 16:53 Cloudy 60 15.6 56 13.3 86 86 NW 8 13 30.01 1016 10 16 0.00 0.03
5:53 pm 17:53 Partly Cloudy 60 15.6 56 13.3 86 86 NNE 3 6 29.99 1016 10 16 0.00 0.03
6:53 pm 18:53 Partly Cloudy 59 15 55 12.8 87 87 Calm 29.96 1015 10 16 0.00 0.00
7:53 pm 19:53 Mostly Cloudy with Light Rain 58 14.4 56 13.3 93 93 NW 9 15 30.02 1017 10 16 0.00 0.03
8:53 pm 20:53 Mostly Cloudy 56 13.3 54 12.2 93 93 WNW 6 9 30.04 1017 10 16 0.00 0.03
9:50 pm 21:50 Mostly Clear with Mist and Fog 54 12 52 11 94 94 Calm 30.09 1019 1 2 0.00 0.00
9:53 pm 21:53 Mostly Cloudy with Mist and Fog 53 11.7 52 11.1 96 96 Calm 30.05 1018 1 1 0.00 0.00
10:06 pm 22:06 Clear with Mist and Fog 53 11.7 51 10.6 93 93 Calm 30.09 1019 1 1 0.00 0.00
10:27 pm 22:27 Clear with Mist and Fog 52 11.1 50 10 93 93 Calm 30.09 1019 2 3 0.00 0.00
10:29 pm 22:29 Clear with Mist and Fog 52 11.1 50 10 93 93 Calm 30.09 1019 3 5 0.00 0.00
10:53 pm 22:53 Clear with Mist and Fog 52 11.1 50 10 93 93 Calm 30.06 1018 5 8 0.00 0.00
10:56 pm 22:56 Clear with Mist and Fog 52 11.1 50 10 93 93 Calm 30.09 1019 2 2 0.00 0.00
11:04 pm 23:04 Clear with Fog 51 10.6 49 9.4 92 92 Calm 30.09 1019 0 0 0.00 0.00
11:22 pm 23:22 Mostly Clear with Mist and Fog 51 10.6 49 9.4 92 92 Calm 30.09 1019 1 2 0.00 0.00
11:27 pm 23:27 Mostly Cloudy with Mist and Fog 50 10 49 9.4 96 96 Calm 30.09 1019 1 1 0.00 0.00
11:53 pm 23:53 Mostly Cloudy with Fog 50 10 48 8.9 93 93 Calm 30.06 1018 0 0 0.00 0.00

Powered by AerisWeather